Regional Weather Roundup
Issued by NWS Jackson, KY

Home | Current Version | Previous Version | Graphics & Text | Print | Product List | Glossary On
Versions: 1 2 3 4 5 6 7 8 9 10 11 12 13 14 15 16 17 18 19 20 21 22 23 24 25 26 27 28 29 30 31 32 33 34 35 36 37 38 39 40 41 42 43 44 45 46 47 48 49 50
000
ASUS43 KJKL 091310
RWRJKL

EAST KENTUCKY HOURLY WEATHER ROUNDUP
NATIONAL WEATHER SERVICE JACKSON KY
800 AM EST TUE FEB 09 2016

NOTE: "FAIR" INDICATES FEW OR NO CLOUDS BELOW 12,000 FEET WITH
NO SIGNIFICANT WEATHER AND/OR OBSTRUCTIONS TO VISIBILITY.

* THESE REPORTS ARE NOT UNDER NWS QUALITY CONTROL AND MAY NOT
  REPORT WEATHER SUCH AS PRECIPITATION AND FOG.

KYZ079-080-083-085-087-088-110-112-115-119-120-091400
...EASTERN KENTUCKY...

CITY           SKY/WX    TMP DP  RH WIND       PRES   REMARKS
JACKSON        LGT SNOW  19  14  81 VRB3      29.76R
LONDON         LGT SNOW  19  15  84 W8        29.80R FOG     WCI   9
SOMERSET*      FLURRIES  21  14  73 W9        29.85R WCI  11
MONTICELLO*    FLURRIES  21  15  78 W8        29.85R WCI  11
WILLIAMSBURG*  CLOUDY    21  18  86 CALM      29.81R
MIDDLESBORO*   CLOUDY    23  15  72 W5        29.81R WCI  16
HARLAN APT*    CLOUDY    21  18  86 SW5       29.76R WCI  15
HAZARD APT*    FLURRIES N/A N/A N/A W7        29.78
BLACK MTN*       N/A     12  10  92 W1          N/A
BIG SANDY*     FLURRIES  22  16  76 NW9G16    29.75R WCI  12
MOREHEAD APT*  CLOUDY    19   9  63 W5G12     29.79R WCI  13
$$

KYZ035-036-041-042-044-050-067-078-099-091400
...CENTRAL KENTUCKY...

CITY           SKY/WX    TMP DP  RH WIND       PRES   REMARKS
MT STERLING*   CLOUDY    21  16  79 W8        29.80R WCI  12
DANVILLE*      CLOUDY    21  18  86 W7        29.82R WCI  13
RICHMOND*      CLOUDY    19  16  86 W8        29.80R WCI   9
LEXINGTON      CLOUDY    20  12  71 W9        29.79R WCI   9
FRANKFORT      CLOUDY    20  13  74 W8        29.79R WCI  10
$$

KYZ091>093-OHZ055-061-077-WVZ005-015-034-035-042-091400
...SOUTHERN OHIO/WEST VIRGINIA...

CITY           SKY/WX    TMP DP  RH WIND       PRES   REMARKS
COVINGTON      MOCLDY    19  16  88 SW8       29.74S FOG     WCI   9
COLUMBUS       LGT SNOW  23  19  85 SW9       29.66R FOG     WCI  13
DAYTON         LGT SNOW  22  20  92 W13       29.69R FOG     WCI  10
WILMINGTON     SNOW      20  17  88 W16       29.69R VSB 1/2 WCI   6
HUNTINGTON     MOCLDY    23  13  65 W8        29.75R WCI  14
CHARLESTON     LGT SNOW  24  19  81 W13       29.72R VSB 1   WCI  12
PINEVILLE*     LGT SNOW  25  20  83 MISG      29.72R
BECKLEY        LGT SNOW  21  16  81 NW13      29.61R WCI   9
$$

VAZ002-007-008-TNZ017-027-036-066-071-091400
...SOUTHWEST VIRGINIA/EAST TENNESSEE...

CITY           SKY/WX    TMP DP  RH WIND       PRES   REMARKS
BRISTOL        LGT SNOW  24  22  91 W7        29.73R FOG     WCI  16
KNOXVILLE      CLOUDY    26  13  57 W15       29.82R WCI  14
OAK RIDGE      FLURRIES  26  18  71 W6        29.84R WCI  19
CROSSVILLE     FLURRIES  20  14  77 W7        29.78S WCI  11
NASHVILLE      LGT SNOW  26  18  71 NW6       29.89R WCI  19
$$

...KEY TO REMARKS...
VSB - VISIBILITY IN MILES
WCI - WIND CHILL INDEX
HX  - HEAT INDEX

$$



USA.gov is the U.S. government's official web portal to all federal, state and local government web resources and services.